Orbital Elements at Epoch 2455399.5 (2010-Jul-22.0) TDB
Reference: JPL 88 (heliocentric ecliptic J2000)
Element | Value | Uncertainty (1-sigma) | Units |
e | .3141568505569534 | 2.3865e-07 | |
a | 5.64537572827304 | 4.1898e-07 | au |
q | 3.871842269268114 | 1.156e-06 | au |
i | 32.14612402067504 | 1.511e-05 | deg |
node | 181.1266510593627 | 3.3609e-05 | deg |
peri | 250.5862770615376 | 9.0121e-05 | deg |
M | 313.7460807304692 | 4.1028e-05 | deg |
tp | 2456028.982617062851 (2012-Apr-11.48261706) | 0.00053691 | TDB |
period | 4899.341411959123 13.41 | 0.00054542 1.493e-06 | d yr |
n | .07347926378864972 | 8.1802e-09 | deg/d |
Q | 7.418909187277965 | 5.5061e-07 | au |
|
| | Orbit Determination Parameters
Additional Information
|